Location: Unspecified
(51.0000°N, 12.0000°E)
Time: 18:48:31
(UTC+02:00)

OTV 5 (USA 277) - Pass Details

Date: 28 April 2019
Orbit: 310 x 325 km, 54.5° (Epoch: 08 May)

Event Time Altitude Azimuth Distance (km) Brightness Sun altitude
Rises 22:35:07 0° 275° (W) 2,037 ? -16.6°
Reaches altitude 10° 22:37:09 10° 285° (WNW) 1,208 ? -16.8°
Maximum altitude 22:39:40 37° 355° (N) 512 ? -17.0°
Enters shadow 22:41:09 19° 54° (NE) 821 ? -17.2°
